Regional Weather Roundup
Issued by NWS

Home | Current Version | Previous Version | Graphics & Text | Print | Product List | Glossary On
Versions: 1 2 3 4 5 6 7 8 9 10 11 12 13 14 15 16 17 18 19 20 21 22 23 24 25 26 27 28 29 30 31 32 33 34 35 36 37 38 39 40 41 42 43 44 45 46 47 48 49 50
000
ASUS45 KPSR 180010
RWRAZ

ARIZONA HOURLY REGIONAL WEATHER ROUNDUP
NATIONAL WEATHER SERVICE PHOENIX AZ
500 PM MST THU AUG 17 2017

NOTE: FAIR INDICATES FEW OR NO CLOUDS BELOW 12,000 FEET WITH NO
SIGNIFICANT WEATHER AND/OR OBSTRUCTIONS TO VISIBILITY.

AZZ001>003-036-180100-
NORTHWEST ARIZONA

CITY           SKY/WX    TMP DP  RH WIND       PRES   REMARKS
BULLHEAD CITY  SUNNY    106  36   9 SW8G14    29.81F
KINGMAN        SUNNY     93  40  15 SW8G20    30.03F
6HR MIN TEMP:  90; 6HR MAX TEMP:  95;

$$

AZZ004>008-015-016-018-180100-
NORTH CENTRAL ARIZONA

CITY           SKY/WX    TMP DP  RH WIND       PRES   REMARKS
GRAND CANYON   SUNNY     81  29  15 SW10G16   30.27F
6HR MIN TEMP:  74; 6HR MAX TEMP:  83;

WILLIAMS       SUNNY     77  37  24 S9        30.28F
PRESCOTT       SUNNY     84  36  18 S7        30.16F
6HR MIN TEMP:  79; 6HR MAX TEMP:  87;

FLAGSTAFF      SUNNY     75  27  17 SW12      30.31F
6HR MIN TEMP:  72; 6HR MAX TEMP:  77;

PAYSON           N/A     86  25  10 SW7       30.18S
PAGE           SUNNY     94  33  11 CALM      30.05F
6HR MIN TEMP:  84; 6HR MAX TEMP:  95;

$$

AZZ009>014-017-180100-
NORTHEAST ARIZONA

CITY           SKY/WX    TMP DP  RH WIND       PRES   REMARKS
WINSLOW        SUNNY     91  24   9 W9        30.11F
6HR MIN TEMP:  84; 6HR MAX TEMP:  92;

SAINT JOHNS    SUNNY     86  34  15 W7        30.17F
6HR MIN TEMP:  78; 6HR MAX TEMP:  88;

WINDOW ROCK    SUNNY     84  26  12 W12G18    30.25F
6HR MIN TEMP:  79; 6HR MAX TEMP:  85;

SHOW LOW       SUNNY    N/A N/A N/A CALM      30.26
$$

AZZ540-542>544-546-548-180100-
GREATER PHOENIX AREA

CITY           SKY/WX    TMP DP  RH WIND       PRES   REMARKS
PHOENIX        MOSUNNY  102  35  10 S6        29.84F
6HR MIN TEMP:  93; 6HR MAX TEMP: 104;

BUCKEYE        SUNNY    100  36  10 CALM      29.85F
GLENDALE       SUNNY    102  32   8 VRB5      29.86F
LUKE AFB       SUNNY    101  36  10 NW5       29.84F
6HR MIN TEMP:  93; 6HR MAX TEMP: 102; 6HR PCP: TRACE;

DEER VALLEY    SUNNY     99  22   6 S10       29.87F
6HR MIN TEMP:  93; 6HR MAX TEMP: 101;

SCOTTSDALE     SUNNY    100  23   6 CALM      29.89F
6HR MIN TEMP:  93; 6HR MAX TEMP: 101;

MESA-FALCON    SUNNY    100  32   9 CALM      29.88F
MESA-GATEWAY   SUNNY    100  30   8 CALM      29.89F
CHANDLER       SUNNY    100  32   9 NE6       29.86F
$$

AZZ539-553-180100-
SOUTHWEST MARICOPA COUNTY AND PINAL COUNTY

CITY           SKY/WX    TMP DP  RH WIND       PRES   REMARKS
CASA GRANDE    SUNNY     99  41  13 E6        29.88F
6HR MIN TEMP:  90; 6HR MAX TEMP: 100;

GILA BEND      SUNNY    105  26   6 W6        29.80F
6HR MIN TEMP:  98; 6HR MAX TEMP: 106;

$$

AZZ503-504-507>509-180100-
SOUTHEAST ARIZONA

CITY           SKY/WX    TMP DP  RH WIND       PRES   REMARKS
TUCSON         SUNNY     99  34  10 N3        29.97F
DAVIS-MONTHAN  SUNNY     99  33  10 CALM      29.96F
6HR MIN TEMP:  92; 6HR MAX TEMP: 102;

RYAN FIELD     SUNNY     99  30   9 W6        29.95F
NOGALES        SUNNY     90  35  14 VRB6      30.08F
6HR MIN TEMP:  86; 6HR MAX TEMP:  92;

SIERRA VISTA   SUNNY     88  33  14 NW8       30.15S
6HR MIN TEMP:  85; 6HR MAX TEMP:  90;

DOUGLAS        SUNNY     90  44  20 N7        30.09S
6HR MIN TEMP:  84; 6HR MAX TEMP:  91;

SAFFORD        SUNNY     95  41  15 SW9       29.96F
6HR MIN TEMP:  88; 6HR MAX TEMP:  97;

$$

AZZ532-180100-
SOUTHWEST ARIZONA

CITY           SKY/WX    TMP DP  RH WIND       PRES   REMARKS
YUMA           SUNNY    103  45  14 CALM      29.78F
6HR MIN TEMP:  95; 6HR MAX TEMP: 103;

$$

CAZ041-043-047-048-061-525>527-560>570-180100-
SOUTHERN CALIFORNIA

CITY           SKY/WX    TMP DP  RH WIND       PRES   REMARKS
DOWNTOWN L.A.  SUNNY     76  62  62 VRB5      29.95F
6HR MIN TEMP:  76; 6HR MAX TEMP:  81;

L.A. AIRPORT   MOSUNNY   72  63  73 W15       29.96F
6HR MIN TEMP:  72; 6HR MAX TEMP:  75;

SAN DIEGO      MOSUNNY   75  60  59 W10       29.98F
6HR MIN TEMP:  72; 6HR MAX TEMP:  77;

BURBANK        SUNNY     81  52  36 S9        29.94F
6HR MIN TEMP:  75; 6HR MAX TEMP:  83;

ONTARIO        MOSUNNY   85  50  29 W15       29.94S
6HR MIN TEMP:  76; 6HR MAX TEMP:  89;

RIVERSIDE      SUNNY     84  53  34 W18       29.93F
6HR MIN TEMP:  76; 6HR MAX TEMP:  89;

PALM SPRINGS   SUNNY    104  43  12 SE7       29.81F
6HR MIN TEMP:  96; 6HR MAX TEMP: 106;

EL CENTRO NAS  MOSUNNY  102  43  13 CALM      29.78F
6HR MIN TEMP:  96; 6HR MAX TEMP: 104;

IMPERIAL       SUNNY    103  51  17 W7        29.76F HX 100
6HR MIN TEMP:  95; 6HR MAX TEMP: 104;

BLYTHE         SUNNY    104  39  10 CALM      29.78F
6HR MIN TEMP:  95; 6HR MAX TEMP: 106;

NEEDLES        SUNNY    106  32   7 VRB5      29.83F
6HR MIN TEMP:  98; 6HR MAX TEMP: 108;

$$

NVZ020-UTZ003-180100-
SOUTHERN NEVADA-UTAH

CITY           SKY/WX    TMP DP  RH WIND       PRES   REMARKS
LAS VEGAS      MOSUNNY  101  40  12 NE6       29.91F
6HR MIN TEMP:  93; 6HR MAX TEMP: 102;

SALT LAKE CITY MOSUNNY   90  39  16 N9        30.07F
6HR MIN TEMP:  85; 6HR MAX TEMP:  92;

$$

NMZ009-TXZ055-180100-
NEW MEXICO-WEST TEXAS

CITY           SKY/WX    TMP DP  RH WIND       PRES   REMARKS
ALBUQUERQUE    MOSUNNY   87  31  13 VRB6      30.13F
6HR MIN TEMP:  82; 6HR MAX TEMP:  90;

EL PASO        PTSUNNY   95  44  17 W3        30.02F
6HR MIN TEMP:  88; 6HR MAX TEMP:  96;

$$


........................KEY........................
SKY/WX - SKY CONDITION/WEATHER
TMP    - TEMPERATURE IN FAHRENHEIT
DP     - DEW POINT IN FAHRENHEIT
RH     - RELATIVE HUMIDITY IN PERCENT
WIND   - DIRECTION AND SPEED IN MILES PER HOUR (MPH)
VRB    - VARIABLE WIND DIRECTION
PRES   - MEAN SEA LEVEL PRESSURE IN INCHES OF MERCURY
         F - FALLING PRESSURE   R - RISING PRESSURE
         S - STEADY PRESSURE
VSB    - VISIBILITY IN MILES
HX     - HEAT INDEX IN FAHRENHEIT
WCI    - WIND CHILL INDEX IN FAHRENHEIT
TC     - TEMPERATURE IN CELSIUS WHICH IS ALSO KNOWN AS
         TEMPERATURE IN CENTIGRADE
AFB    - AIR FORCE BASE
         LUKE AFB IS LUKE AIR FORCE BASE
         DAVIS-MONTHAN IS DAVIS-MONTHAN AIR FORCE BASE
NAS    - NAVAL AIR STATION
         EL CENTRO NAS IS EL CENTRO NAVAL AIR STATION
N/A    - NOT AVAILABLE




USA.gov is the U.S. government's official web portal to all federal, state and local government web resources and services.